Temp
6 6 7 7 7 8 8 9 10 10 11 11 11 12 12 12 13 14 16 15 15 14 16 16 17 19 19 21 21 22 25 22 27 27 24 21 21 19 18 17 16 16 16 15 16
6 6 6 7 7 8 8 9 9 10 11 11 11 12 12 13 13 16 15 14 14 15 15 18 20 20 21 22 23 24 24 26 24 26 24 23 21 19 19 18 17 15 15 15 16
4 6 6 6 7 8 9 10 10 10 10 11 11 12 12 13 14 17 15 14 14 14 15 17 18 20 22 23 23 24 24 24 23 23 24 23 22 20 19 17 16 16 15 15 15
3 4 6 6 7 8 9 10 10 10 10 11 11 12 13 13 19 15 14 14 14 14 15 17 19 21 23 24 23 24 22 24 19 18 19 20 18 16 16 14 14 15 15 15 15
2 3 5 6 7 7 9 10 10 10 10 11 11 12 12 14 17 14 14 14 14 15 16 18 20 21 23 24 23 23 21 20 18 18 16 16 16 15 14 14 14 14 14 14 15
1 2 4 5 6 7 8 10 10 10 10 10 11 12 12 17 15 14 14 14 15 16 17 18 20 21 22 23 22 20 19 18 18 16 15 15 15 16 13 14 14 14 14 14 13
2 2 3 5 5 7 8 9 10 10 10 10 11 12 12 16 15 15 14 15 15 16 17 17 18 20 21 22 20 19 19 18 17 17 17 15 14 14 14 14 14 14 13 13 13
2 2 3 5 6 7 8 9 10 10 10 10 11 11 14 14 15 14 15 15 15 15 15 16 17 19 20 20 19 20 19 19 18 17 17 17 14 14 14 15 14 13 12 12 11
2 2 3 5 6 7 8 10 10 11 10 11 11 11 16 14 14 15 15 16 16 15 15 15 17 19 19 20 20 21 20 20 18 19 19 18 15 13 13 14 14 14 13 12 10
2 3 3 4 6 7 9 10 10 10 10 10 11 13 14 16 15 15 15 15 16 16 16 17 19 20 20 21 20 20 22 20 19 18 20 19 15 14 14 14 14 14 14 13 12
2 3 3 4 6 7 8 9 10 11 11 15 16 16 15 15 14 15 15 15 16 17 19 19 20 20 21 22 23 22 22 20 20 20 19 18 16 15 14 15 15 15 14 12 11
2 2 3 4 6 6 8 10 7 6 12 13 13 14 14 15 16 16 15 17 17 19 20 20 19 22 22 22 22 22 21 20 17 16 19 18 16 16 15 16 16 15 14 13 11
2 2 3 4 5 5 6 5 6 6 11 15 14 14 14 14 17 17 16 17 19 20 20 20 21 22 22 21 21 22 21 18 18 17 19 18 17 16 16 15 13 13 13 12 12
2 2 2 4 5 5 6 5 6 7 13 16 14 14 15 15 17 17 16 18 19 20 20 21 19 20 21 20 21 20 22 19 18 18 18 19 18 17 16 15 14 13 13 12 11
1 2 2 2 3 5 4 6 6 7 11 17 16 15 15 16 17 16 16 17 19 20 19 19 18 19 19 20 21 21 20 20 18 19 18 18 18 20 18 16 15 14 13 12 11
0 1 2 3 3 4 4 6 6 10 9 15 15 15 16 16 17 17 16 16 19 19 19 19 19 20 21 21 21 19 19 19 19 20 16 19 18 19 17 16 16 15 13 12 11
-0 0 2 1 4 3 5 6 10 8 16 15 14 15 16 16 17 17 17 17 18 17 17 17 18 18 18 19 19 19 18 16 16 16 16 20 19 19 20 18 17 15 13 12 11
-1 1 1 2 2 2 4 9 7 12 14 16 15 15 15 16 16 17 17 17 19 20 19 17 15 17 19 19 18 19 19 18 15 17 18 18 16 18 19 17 16 14 13 11 11
-0 1 1 2 2 2 5 6 8 12 16 15 15 14 15 16 16 16 17 18 19 20 18 18 17 18 18 19 19 18 18 20 17 17 18 18 16 16 17 17 16 14 12 11 11
-1 -0 2 2 3 3 7 6 10 12 13 15 14 15 14 15 14 16 16 18 19 19 20 19 16 16 16 17 18 17 19 15 16 13 15 19 19 17 15 15 15 14 13 12 11
-2 1 2 2 2 4 4 7 10 12 11 13 15 15 16 15 15 15 16 17 19 18 18 18 17 15 15 16 16 16 16 16 16 17 16 17 18 18 16 15 15 14 13 12 12
-2 1 1 2 4 6 6 9 10 11 11 12 13 15 15 16 15 15 16 17 17 17 16 17 17 14 14 17 18 17 17 16 11 11 15 14 15 17 17 15 14 14 13 13 12
-2 -1 1 2 3 4 7 8 9 10 12 12 12 14 14 15 14 15 15 16 16 16 16 16 16 14 14 14 15 15 17 17 16 14 11 13 15 16 17 16 15 14 14 13 12
-2 0 2 2 4 6 6 7 8 8 10 12 12 13 13 13 15 14 15 12 14 16 14 15 16 15 15 16 16 14 16 16 17 14 15 16 17 16 17 16 15 15 14 13 12
-2 1 -1 2 2 5 7 8 8 8 9 10 11 12 13 10 13 13 15 12 12 12 13 15 14 16 17 18 18 17 16 16 16 16 16 18 18 18 17 17 16 15 14 13 12
-2 -1 -1 2 3 5 5 7 8 9 9 9 10 12 13 12 13 12 14 12 12 13 14 15 14 15 11 16 17 17 17 17 17 17 17 19 19 20 17 17 16 15 14 14 12
-3 -3 -2 2 4 5 5 6 7 9 9 10 11 11 13 13 12 11 12 13 15 13 13 13 13 14 12 15 15 14 16 17 17 17 18 17 19 19 18 17 16 15 14 14 13
Height
1516 1515 1513 1513 1511 1510 1508 1507 1506 1505 1504 1504 1504 1503 1503 1503 1503 1503 1504 1502 1502 1501 1501 1502 1504 1503 1502 1501 1500 1499 1496 1506 1480 1481 1497 1514 1516 1521 1524 1525 1527 1529 1535 1540 1542
1516 1514 1513 1511 1510 1509 1508 1506 1505 1504 1503 1502 1502 1503 1503 1503 1502 1504 1501 1501 1500 1500 1502 1503 1501 1501 1499 1497 1497 1494 1491 1487 1495 1491 1499 1508 1518 1521 1525 1527 1531 1536 1539 1542 1542
1515 1514 1512 1510 1509 1507 1506 1505 1504 1503 1502 1501 1501 1502 1502 1502 1504 1500 1499 1499 1499 1499 1502 1503 1501 1499 1494 1494 1493 1490 1489 1492 1502 1505 1503 1511 1516 1523 1527 1533 1537 1540 1542 1543 1544
1515 1513 1511 1510 1508 1506 1505 1504 1503 1502 1502 1501 1501 1501 1502 1502 1496 1498 1498 1498 1498 1498 1502 1501 1501 1497 1491 1489 1491 1490 1497 1490 1506 1512 1518 1524 1524 1534 1533 1542 1544 1544 1545 1545 1546
1514 1512 1510 1508 1507 1505 1504 1503 1502 1501 1500 1500 1501 1501 1501 1502 1499 1496 1497 1497 1498 1501 1501 1500 1497 1493 1487 1487 1492 1493 1504 1505 1514 1514 1523 1534 1536 1538 1543 1546 1546 1547 1547 1548 1548
1514 1511 1509 1506 1505 1503 1502 1501 1500 1500 1499 1500 1500 1501 1501 1499 1496 1497 1497 1498 1500 1500 1500 1499 1495 1492 1488 1485 1494 1502 1509 1515 1517 1522 1526 1532 1539 1539 1549 1549 1549 1548 1549 1550 1551
1513 1510 1508 1505 1503 1501 1499 1499 1499 1498 1498 1498 1499 1500 1500 1497 1496 1497 1496 1498 1498 1499 1499 1499 1498 1496 1491 1493 1499 1507 1511 1520 1525 1524 1531 1532 1542 1546 1549 1550 1550 1551 1551 1552 1554
1512 1509 1506 1503 1501 1498 1497 1496 1496 1496 1497 1498 1499 1499 1496 1494 1495 1495 1495 1496 1497 1498 1499 1499 1498 1496 1497 1500 1506 1505 1510 1511 1521 1525 1528 1527 1544 1548 1549 1548 1551 1553 1554 1556 1555
1511 1508 1504 1501 1498 1497 1495 1494 1494 1495 1496 1498 1499 1500 1492 1491 1492 1493 1493 1495 1496 1497 1498 1497 1499 1496 1500 1498 1501 1496 1501 1499 1519 1518 1522 1526 1536 1548 1551 1549 1550 1553 1555 1557 1557
1509 1506 1502 1499 1497 1495 1494 1494 1494 1494 1496 1498 1499 1501 1491 1489 1490 1491 1492 1493 1495 1496 1498 1498 1496 1493 1493 1488 1493 1493 1484 1496 1507 1519 1516 1517 1534 1545 1548 1548 1551 1553 1555 1556 1558
1507 1504 1501 1498 1495 1493 1494 1497 1498 1498 1495 1489 1487 1487 1487 1488 1489 1490 1491 1492 1493 1494 1488 1492 1489 1487 1483 1480 1473 1482 1480 1492 1503 1512 1516 1523 1535 1541 1546 1547 1550 1551 1554 1555 1559
1506 1503 1500 1496 1495 1494 1494 1495 1493 1495 1490 1487 1487 1487 1487 1487 1487 1487 1489 1489 1489 1485 1483 1488 1484 1477 1478 1478 1478 1476 1484 1496 1516 1522 1515 1524 1532 1539 1543 1544 1546 1549 1552 1555 1559
1504 1502 1499 1496 1494 1494 1496 1494 1492 1493 1491 1479 1482 1484 1485 1487 1482 1482 1486 1484 1484 1478 1479 1478 1473 1474 1476 1483 1484 1476 1483 1503 1512 1521 1515 1520 1528 1534 1539 1544 1549 1550 1553 1555 1558
1502 1501 1498 1496 1497 1494 1496 1493 1492 1492 1483 1470 1477 1476 1481 1482 1481 1479 1482 1483 1480 1475 1477 1472 1481 1481 1480 1485 1484 1489 1485 1500 1510 1512 1516 1515 1519 1524 1532 1538 1545 1548 1552 1555 1557
1500 1499 1498 1497 1494 1496 1494 1492 1492 1494 1489 1460 1468 1471 1474 1477 1470 1478 1480 1481 1475 1471 1477 1478 1483 1484 1484 1481 1484 1485 1491 1497 1507 1504 1511 1516 1520 1498 1519 1530 1535 1543 1548 1553 1555
1497 1496 1496 1496 1495 1494 1492 1492 1494 1493 1488 1461 1463 1466 1469 1472 1472 1473 1478 1479 1473 1477 1479 1478 1480 1482 1480 1481 1485 1494 1499 1504 1503 1501 1519 1506 1514 1507 1513 1522 1529 1538 1545 1551 1555
1494 1493 1494 1494 1494 1492 1491 1493 1489 1489 1456 1457 1459 1460 1462 1464 1468 1470 1470 1472 1470 1476 1480 1484 1483 1488 1488 1489 1495 1495 1500 1513 1520 1515 1519 1491 1500 1502 1497 1512 1521 1533 1542 1549 1553
1491 1490 1490 1491 1492 1492 1491 1490 1486 1462 1453 1450 1453 1459 1459 1460 1464 1467 1467 1467 1464 1462 1469 1477 1497 1486 1485 1487 1492 1491 1495 1499 1517 1506 1497 1500 1510 1499 1499 1513 1520 1532 1541 1547 1552
1490 1489 1487 1488 1489 1489 1491 1483 1470 1458 1445 1452 1454 1458 1456 1456 1459 1463 1460 1460 1459 1457 1465 1470 1477 1481 1485 1485 1489 1491 1495 1487 1498 1496 1489 1495 1505 1508 1506 1513 1519 1530 1538 1544 1549
1490 1487 1484 1485 1486 1489 1485 1473 1463 1459 1457 1450 1450 1449 1453 1454 1462 1459 1458 1454 1454 1459 1459 1462 1484 1486 1490 1492 1491 1491 1489 1508 1507 1524 1513 1483 1484 1495 1508 1512 1518 1527 1534 1540 1545
1488 1485 1480 1480 1483 1484 1476 1469 1465 1461 1462 1456 1446 1447 1445 1451 1455 1456 1451 1451 1452 1459 1462 1464 1472 1488 1492 1487 1487 1496 1496 1500 1500 1497 1499 1493 1488 1482 1495 1507 1514 1522 1530 1536 1541
1488 1483 1478 1479 1481 1474 1472 1467 1464 1460 1462 1459 1454 1445 1447 1443 1450 1450 1450 1451 1454 1460 1466 1466 1469 1484 1486 1482 1483 1487 1490 1496 1517 1520 1504 1505 1496 1490 1494 1504 1513 1519 1526 1532 1538
1488 1483 1478 1479 1474 1472 1470 1467 1463 1464 1458 1455 1453 1450 1450 1446 1452 1450 1451 1452 1457 1461 1462 1466 1470 1483 1487 1492 1490 1487 1485 1486 1494 1505 1517 1509 1497 1494 1493 1503 1510 1515 1522 1528 1535
1490 1481 1477 1476 1472 1468 1467 1465 1461 1464 1461 1454 1453 1453 1451 1450 1448 1450 1450 1460 1461 1461 1465 1465 1462 1466 1471 1466 1471 1484 1480 1484 1486 1501 1492 1491 1483 1492 1492 1498 1505 1511 1518 1524 1531
1488 1481 1477 1471 1472 1467 1461 1458 1459 1459 1460 1457 1454 1450 1448 1454 1449 1452 1449 1461 1465 1465 1466 1465 1467 1462 1458 1456 1458 1466 1473 1478 1479 1483 1487 1478 1477 1481 1488 1492 1500 1507 1515 1521 1527
1487 1484 1479 1472 1468 1463 1463 1458 1456 1453 1455 1454 1453 1448 1447 1446 1448 1453 1448 1456 1457 1463 1462 1463 1465 1461 1474 1465 1462 1461 1463 1467 1473 1474 1475 1470 1471 1470 1484 1491 1497 1503 1510 1516 1522
1484 1484 1484 1473 1465 1462 1460 1459 1456 1455 1452 1453 1451 1450 1443 1448 1450 1450 1450 1450 1449 1454 1459 1462 1466 1464 1472 1467 1466 1470 1458 1457 1462 1466 1466 1471 1468 1472 1479 1485 1490 1497 1504 1510 1517
Wind_Speed
8 7 7 7 6 6 4 3 2 2 2 2 3 3 3 3 1 2 5 8 9 7 3 4 8 8 11 15 14 7 8 14 15 12 15 16 15 14 18 24 23 18 21 15 14
9 8 7 6 6 6 5 4 3 2 2 1 3 3 2 2 3 6 11 9 5 2 1 6 10 11 16 15 11 12 13 25 7 12 19 15 20 21 20 24 25 23 19 16 17
10 8 8 7 7 6 5 4 4 4 3 3 4 4 2 0 4 4 10 6 5 2 4 7 7 12 18 13 16 18 13 10 12 9 18 18 16 23 20 16 17 17 17 17 17
12 10 9 8 8 7 6 5 5 4 4 4 5 4 4 3 1 5 7 4 2 2 4 6 12 15 16 15 12 8 6 9 19 25 18 12 21 20 23 16 14 14 15 16 17
17 15 10 9 9 8 7 6 6 5 5 5 5 3 3 6 4 5 4 4 1 3 5 9 13 16 15 16 14 12 9 21 23 20 24 19 14 15 18 14 14 15 16 16 16
18 18 14 11 10 9 7 7 7 6 6 7 5 4 3 11 4 2 2 2 2 4 5 8 10 11 14 12 13 16 17 16 18 24 28 25 17 7 11 12 13 15 16 16 16
21 19 17 13 12 10 8 7 7 7 7 7 5 4 7 4 5 4 4 3 4 5 6 6 6 9 5 6 17 26 23 19 18 23 18 32 14 13 12 12 13 14 15 15 15
19 19 20 13 13 12 9 8 8 8 8 7 4 3 8 7 6 4 4 4 4 5 5 5 6 10 13 15 19 18 20 17 16 22 15 6 10 10 9 11 13 11 12 13 15
19 21 21 16 13 12 9 8 7 7 8 7 2 4 7 6 5 6 5 5 5 8 5 5 7 10 10 19 15 16 17 16 13 17 13 12 14 11 9 11 11 10 11 11 12
18 21 22 15 13 11 5 3 4 6 7 5 7 7 11 10 8 6 5 7 9 11 8 10 11 10 15 16 16 17 18 20 14 12 11 8 14 13 13 12 11 9 9 10 11
17 19 21 16 13 7 3 1 3 5 15 11 4 7 4 7 7 7 7 9 10 14 13 18 11 15 21 21 17 17 15 14 16 9 12 12 15 14 14 12 11 11 9 9 10
18 20 21 14 9 2 3 4 2 2 7 21 12 12 6 6 10 11 10 12 15 15 17 12 15 18 18 19 11 19 13 16 10 5 6 15 14 13 12 11 9 9 9 11 10
20 19 21 13 1 4 3 1 2 2 7 10 20 15 12 11 12 15 15 13 15 16 13 14 9 8 13 10 13 13 19 15 13 12 7 12 10 13 13 13 10 8 8 10 11
23 19 19 8 1 1 2 5 1 2 5 12 11 12 18 11 9 11 15 11 8 14 16 13 6 10 13 16 14 11 12 17 16 16 9 17 6 17 16 14 14 14 14 13 11
20 18 16 11 6 2 3 1 1 2 4 15 14 10 18 15 14 15 14 10 14 11 8 5 9 14 16 16 15 9 5 11 13 16 10 14 8 11 19 16 16 17 15 14 11
16 16 14 6 7 7 5 3 3 4 8 9 11 14 19 23 13 19 15 11 12 10 12 7 12 12 14 9 10 11 13 10 11 10 8 14 13 11 17 17 17 20 18 16 14
14 12 13 9 6 8 6 2 4 6 3 9 10 18 21 15 15 15 18 16 11 16 14 9 11 4 8 14 8 16 16 8 8 9 12 14 14 12 8 14 19 22 21 18 15
14 12 12 11 10 10 5 7 8 6 13 2 7 15 19 19 17 18 19 19 19 16 15 13 8 14 15 15 12 20 18 6 10 12 12 8 7 7 8 12 21 24 22 20 17
14 11 11 11 9 7 12 8 5 9 12 7 11 16 15 16 11 19 22 21 23 20 10 14 8 13 15 10 8 17 14 6 3 3 4 8 3 1 9 14 23 25 24 22 19
12 14 13 11 12 9 11 13 10 3 9 10 13 16 18 20 12 17 18 20 20 17 7 8 11 14 9 9 11 9 11 5 5 3 6 9 14 7 18 19 19 23 25 22 19
9 6 6 9 11 15 10 13 14 6 7 9 17 12 12 15 18 21 13 7 21 20 8 9 7 14 13 16 17 8 11 7 7 8 6 5 5 7 22 22 22 25 25 23 22
7 4 4 7 12 13 12 17 12 9 9 9 8 9 13 15 18 18 20 14 20 19 19 13 8 15 20 12 15 19 14 15 4 4 4 3 2 1 16 25 27 26 25 23 23
6 7 4 9 5 7 12 18 21 12 12 8 9 11 9 10 9 17 15 4 18 19 18 12 8 13 14 6 10 13 21 18 14 5 6 4 2 5 16 23 27 26 25 24 24
5 3 8 10 15 11 15 16 17 15 18 12 8 4 10 11 12 10 13 5 13 20 12 18 11 16 12 7 12 24 21 19 19 10 9 10 7 11 15 21 26 26 26 26 25
4 4 3 3 8 13 14 9 19 20 15 14 14 14 13 6 13 11 16 8 10 14 10 13 16 17 16 9 11 19 25 24 23 22 14 12 15 15 18 21 28 27 27 27 26
4 4 7 17 14 13 14 15 14 16 17 17 15 16 11 11 13 11 13 11 10 13 16 14 12 15 10 9 13 13 22 24 26 22 22 14 9 12 21 24 27 29 30 29 28
6 9 4 9 10 11 10 16 15 15 9 20 13 16 15 9 1 7 11 12 7 14 18 17 10 11 10 13 12 13 17 23 21 24 23 18 13 9 17 24 29 31 32 30 29
Wind_Direction
348 346 341 334 331 327 323 317 311 305 300 289 247 218 211 242 230 275 246 229 252 267 228 266 244 228 224 233 234 235 183 265 262 193 122 134 105 95 97 96 82 87 89 94 95
344 340 341 336 328 326 321 316 304 282 284 234 204 199 194 265 255 237 238 256 259 255 268 238 221 208 211 221 216 213 226 198 4 69 129 141 129 123 112 96 90 89 89 90 93
353 341 337 334 325 321 315 301 293 282 269 220 190 190 194 213 270 187 254 268 250 195 277 237 239 217 224 209 214 215 231 136 109 90 109 124 134 106 101 81 77 90 94 91 90
356 345 336 330 326 314 307 287 278 268 260 216 194 187 188 195 307 201 279 296 249 222 263 227 218 214 227 202 181 180 338 147 119 119 104 90 88 73 84 91 95 90 92 92 86
341 344 332 328 320 312 301 283 277 255 242 215 203 200 173 229 237 243 300 323 309 251 236 217 222 217 222 203 178 218 118 115 134 122 123 126 96 94 91 97 99 95 88 83 82
331 329 331 325 317 308 295 277 268 249 231 204 202 205 239 251 191 221 275 254 213 217 223 216 219 231 257 155 193 141 138 120 126 117 123 122 125 110 100 108 99 94 85 78 73
338 328 332 321 317 305 284 269 264 248 228 202 201 224 252 266 188 237 265 215 214 199 209 210 228 207 168 106 118 138 130 124 136 136 138 124 88 106 121 118 105 94 87 80 72
339 338 331 314 313 306 284 262 255 234 217 201 206 244 263 228 218 240 222 213 202 198 191 214 204 238 185 140 148 165 152 150 158 153 175 275 119 121 137 135 117 108 96 86 73
338 336 331 318 312 305 285 263 248 222 201 196 227 231 251 223 212 203 180 191 188 182 191 177 180 192 147 172 172 185 177 173 156 193 158 216 135 142 147 133 122 121 112 96 81
334 334 335 321 316 309 286 258 208 191 197 219 241 246 230 215 187 190 189 174 173 170 166 184 193 186 191 192 189 187 205 152 159 173 196 160 125 148 159 147 134 131 120 107 92
325 329 334 325 320 311 177 200 188 208 208 205 240 241 154 182 193 195 186 174 184 186 190 196 204 200 197 202 203 187 219 154 120 161 147 141 145 152 165 156 161 147 134 113 100
322 328 328 327 323 343 139 254 38 282 270 231 231 227 219 203 202 192 178 186 187 199 202 185 225 203 208 210 254 199 186 128 117 159 221 154 154 158 172 169 157 146 140 136 129
313 324 322 328 347 42 65 84 302 288 257 207 221 220 202 203 215 188 188 206 197 208 202 204 194 148 199 192 229 198 187 162 166 165 187 164 161 170 180 165 159 149 140 136 132
297 308 315 330 16 308 191 348 350 162 260 174 198 217 202 200 221 186 195 196 209 206 193 224 118 193 186 201 209 192 189 165 152 175 184 206 232 187 178 184 185 166 163 151 141
296 288 305 327 293 282 270 268 91 78 249 153 152 161 182 195 144 197 190 208 195 180 188 160 186 192 202 203 203 164 128 168 182 208 188 194 243 212 172 193 187 176 167 160 150
300 280 291 339 290 261 249 164 137 217 237 171 163 188 179 205 209 156 185 219 208 168 214 144 172 193 206 196 194 138 156 181 201 226 225 226 211 207 187 202 186 177 172 166 160
296 281 269 278 241 293 211 188 199 213 160 174 185 180 188 183 192 181 185 189 173 179 169 163 167 129 151 158 174 178 164 173 205 212 235 228 207 223 178 186 189 176 177 172 168
297 295 257 259 257 274 244 212 217 188 214 147 174 184 196 179 198 197 192 193 216 197 165 172 180 175 184 187 182 193 191 191 211 211 225 134 240 223 155 173 177 174 176 174 175
307 300 274 253 251 237 219 209 204 240 206 181 179 187 196 188 203 201 206 209 205 208 177 200 162 170 178 185 202 194 207 301 307 270 274 181 158 157 159 171 165 172 175 179 182
305 294 273 239 235 218 224 226 224 287 304 217 190 193 193 192 202 196 198 216 198 213 176 183 144 169 164 218 209 249 188 202 228 218 225 222 196 212 180 177 170 174 178 180 183
301 269 243 214 207 213 221 226 240 226 271 248 227 204 219 196 203 199 200 196 202 196 185 215 164 183 165 204 187 182 210 210 248 245 257 209 221 350 179 180 176 177 180 181 180
289 248 216 188 202 217 225 228 253 253 236 256 282 237 225 205 199 207 226 190 220 183 197 197 204 178 199 199 217 198 216 192 176 233 238 317 338 70 170 178 180 180 181 180 180
290 276 238 187 233 227 229 238 247 240 238 217 232 227 221 219 207 227 212 229 196 187 197 158 174 171 176 196 228 232 204 210 201 178 222 205 226 176 165 176 182 181 180 178 179
294 277 232 217 245 253 218 235 230 226 262 241 258 231 213 221 213 212 209 144 190 207 215 175 214 200 191 202 189 206 212 208 209 214 221 217 159 175 178 178 180 182 180 178 180
248 260 5 214 237 244 250 232 227 227 225 230 238 234 212 197 218 218 210 137 195 211 210 202 231 212 229 263 194 201 206 203 210 215 219 228 233 177 188 183 182 181 179 180 183
268 319 324 281 274 234 242 245 238 228 227 223 238 226 221 232 208 216 206 181 183 190 208 200 228 227 226 231 236 214 206 211 212 216 230 236 238 162 182 183 181 184 184 185 186
254 265 290 279 274 247 231 232 239 235 238 236 235 239 227 235 238 345 309 212 225 186 199 198 216 219 209 219 216 226 218 207 214 219 222 223 216 159 175 189 187 187 188 189 188